Regional Weather Roundup
Issued by NWS

Home | Current Version | Previous Version | Graphics & Text | Print | Product List | Glossary On
Versions: 1 2 3 4 5 6 7 8 9 10 11 12 13 14 15 16 17 18 19 20 21 22 23 24 25 26 27 28 29 30 31 32 33 34 35 36 37 38 39 40 41 42 43 44 45 46 47 48 49 50
000
ASUS43 KLSX 161357
RWRMO

WEATHER SUMMARY FOR MISSOURI
NATIONAL WEATHER SERVICE SPRINGFIELD MO
800 AM CST MON JAN 16 2017

NOTE: "FAIR" INDICATES FEW OR NO CLOUDS BELOW 12,000 FEET WITH NO
       SIGNIFICANT WEATHER AND/OR OBSTRUCTIONS TO VISIBILITY.
       CURRENT SKY AND/OR WEATHER CONDITIONS ARE NOT AVAILABLE FOR
       CHILLICOTHE AND FARMINGTON.

MOZ001>031-035>038-043-044-053-054-161500-
...NORTHERN AND WESTERN MISSOURI...

CITY           SKY/WX    TMP DP  RH WIND       PRES   REMARKS
KANSAS CTY INT CLOUDY    36  34  92 E13       29.90F VSB 1/8 WCI  27
LEE`S SUMMIT   FOG       37  32  82 E12       29.90F VSB 3/4 WCI  29
ST JOSEPH      LGT RAIN  34  34 100 E9        29.94F WCI  27
CHILLICOTHE      N/A     34  33  96 VRB6      30.00F WCI  29

$$
MOZ066>068-077>081-088>096-101>105-161500-
...SOUTHWEST MISSOURI...

CITY           SKY/WX    TMP DP  RH WIND       PRES   REMARKS
SPRINGFIELD    CLOUDY    50  49  96 S20G25    29.93R
JOPLIN         MOCLDY    52  51  97 SE12      29.88R
BRANSON        FOG       45  45 100 SE15      29.98S VSB 1/8

$$
MOZ032>034-039>042-045>050-055>058-069>072-161500-
...CENTRAL MISSOURI...

CITY           SKY/WX    TMP DP  RH WIND       PRES   REMARKS
COLUMBIA       NOT AVBL
JEFFERSON CITY LGT RAIN  41  40  96 E9        30.02F
ROLLA          LGT RAIN  41  41 100 E10       30.00F VSB 3/4
SEDALIA        CLOUDY    45  44  97 SE15      29.94F
WHITEMAN AFB   CLOUDY    43  43 100 E7        29.90F
WARRENSBURG    CLOUDY    39  37  93 NE5       29.91F FOG
OSAGE BEACH    LGT RAIN  48  46  93 SE7       29.98F

$$
MOZ051-052-059>065-161500-
...EAST CENTRAL MISSOURI...

CITY           SKY/WX    TMP DP  RH WIND       PRES   REMARKS
ST LOUIS INTL  FOG       41  39  93 E10       30.11S VSB 1/4

$$
MOZ072>076-082>087-097>100-106>115-161500-
...SOUTH CENTRAL AND SOUTHEAST MISSOURI...

CITY           SKY/WX    TMP DP  RH WIND       PRES   REMARKS
CAPE GIRARDEAU CLOUDY    45  44  97 E5        30.14S FOG
POPLAR BLUFF   FOG       43  43 100 N3        30.13S VSB 1/4
WEST PLAINS    LGT RAIN  46  45  96 SE10      30.05F VSB 1/2

$$


USA.gov is the U.S. government's official web portal to all federal, state and local government web resources and services.